#timestamp,LO_Frequency,Hit,StdDev 
1622170815.3,286046998.2,N
1622170835.2,286046998.2,N
1622170855.0,286046999.6,N
1622170855.9,286046999.6,N
1622170875.7,286046995.5,N
1622170895.6,286046997.8,N
1622170915.4,286046998.3,N
1622170935.3,286046999.4,N
1622170955.1,286046998.1,N
1622170975.8,286047002.7,N
1622170995.7,286047000.4,N
1622171015.5,286047002.0,N
1622171035.4,286047004.4,N
1622171055.2,286047002.5,N
1622171075.0,286047001.5,N
1622171075.9,286047001.5,N
1622171095.8,286047002.8,N
1622171115.6,286047000.7,N
1622171135.5,286046999.0,N
1622171155.3,286046999.3,N
1622171175.1,286046999.2,N
1622171195.9,286047000.8,N
1622171215.7,286047002.2,N
1622171235.5,286047000.1,N
1622171255.4,286046999.9,N
1622171275.2,286047002.6,N
1622171295.1,286047004.4,N
1622171296.0,286047004.4,N
1622171315.8,286047004.4,N
1622171335.6,286047002.1,N
1622171355.5,286047002.3,N
1622171375.3,286047002.3,N
1622171395.2,286047002.3,N
1622171415.9,286047002.0,N
1622171435.7,286047002.1,N
1622171455.6,286047002.3,N
1622171475.4,286047000.2,N
1622171495.2,286047000.4,N
1622171515.1,286047000.4,N
1622171516.0,286047000.4,N
1622171535.8,286046998.5,N
1622171555.7,286047003.8,N
1622171575.5,286047001.4,N
1622171595.3,286047002.5,N
1622171615.2,286046998.3,N
1622171635.0,286046998.1,N
1622171635.9,286046998.1,N
1622171655.7,286047002.2,N
1622171675.6,286047001.3,N
1622171695.4,286047001.8,N
1622171715.3,286047001.3,N
1622171735.1,286047004.0,N
1622171755.8,286047004.4,N
1622171775.7,286047004.4,N
1622171795.5,286047001.8,N
1622171815.3,286047002.6,N
1622171835.2,286047002.0,N
1622171855.0,286047002.5,N
1622171855.9,286047002.5,N
1622171875.8,286047002.1,N
1622171895.6,286047000.7,N
1622171915.4,286047002.3,N
1622171935.3,286047002.3,N
1622171955.1,286046999.7,N
1622171975.9,286047000.0,N
1622171995.7,286047002.1,N
1622172015.5,286047001.7,N
1622172035.4,286047003.5,N
1622172055.2,286047002.6,N
1622172075.0,286047004.0,N
1622172075.9,286047004.0,N
1622172095.8,286047001.5,N
1622172115.6,286047003.8,N
1622172135.5,286047003.2,N
1622172155.3,286047001.4,N
1622172175.1,286047003.2,N
1622172195.9,286047003.1,N
1622172215.7,286047002.9,N
1622172235.5,286047002.6,N
1622172255.4,286047003.7,Y
1622172275.2,286047001.0,P
1622172295.1,286046999.9,N
1622172296.0,286046999.9,N
1622172315.8,286047001.9,N
1622172335.6,286047002.4,N
1622172355.5,286047000.5,N
1622172375.3,286047000.8,N
1622172395.2,286046997.1,Y
1622172415.9,286046996.9,P
1622172435.7,286046997.3,N
1622172455.6,286046995.4,N
1622172475.4,286046997.3,N
1622172495.3,286046996.8,N
1622172515.1,286046995.1,N
1622172516.0,286046995.1,N
1622172535.8,286046997.5,N
1622172555.7,286046998.1,N
1622172575.5,286047001.1,N
1622172595.3,286047001.1,N
1622172615.2,286046998.6,N
1622172635.0,286047000.4,N
1622172635.9,286047000.4,N
1622172655.8,286046999.5,N
1622172675.6,286046996.8,N
1622172695.4,286046995.9,N
1622172715.3,286046996.8,N
1622172735.1,286046997.4,N
1622172755.8,286046998.4,N
1622172775.7,286046996.5,N
1622172795.5,286046999.4,N
1622172815.4,286046995.6,N
1622172835.2,286046996.2,N
1622172855.0,286046997.1,N
1622172855.9,286046997.1,N
1622172875.8,286046999.2,N
1622172895.6,286046995.3,N
1622172915.4,286046995.6,N
1622172935.3,286046994.3,Y
1622172955.1,286046999.1,P
1622172975.9,286046998.9,N
1622172995.7,286047000.9,N
1622173015.5,286046998.2,N
1622173035.4,286047002.4,N
1622173055.2,286047001.2,N
1622173075.0,286047000.4,N
1622173075.9,286047000.4,N
1622173095.8,286046999.9,N
1622173115.6,286047001.2,N
1622173135.5,286047000.3,N
1622173155.3,286046998.1,N
1622173175.1,286046999.2,N
1622173195.9,286047001.0,N
1622173215.7,286047000.7,N
1622173235.5,286047000.1,N
1622173255.4,286047002.3,N
1622173275.2,286047004.4,Y
1622173295.1,286047002.4,P
1622173296.0,286047002.4,N
1622173315.8,286047000.7,N
1622173335.6,286047000.9,N
1622173355.5,286047000.9,N
1622173375.3,286046996.6,Y
1622173395.2,286046995.4,P
1622173415.9,286046995.0,N
1622173435.7,286046993.3,N
1622173455.6,286046993.7,N
1622173475.4,286046996.3,N
1622173495.2,286046997.2,N
1622173515.1,286046999.1,N
1622173516.0,286046999.1,N
1622173535.8,286046995.0,N
1622173555.7,286046995.4,N
1622173575.5,286046995.1,N
1622173595.3,286046993.3,N
1622173615.2,286046996.8,N
1622173635.9,286046996.5,N
1622173655.7,286046997.2,N
1622173675.6,286046999.5,N
1622173695.4,286046997.2,N
1622173715.3,286046998.7,N
1622173735.1,286046998.2,N
1622173736.0,286046998.2,N
1622173755.8,286046998.2,N
1622173775.7,286046995.0,N
1622173795.5,286046996.1,N
1622173815.3,286046995.7,N
1622173835.2,286046995.1,N
1622173855.0,286046997.6,N
1622173855.9,286046997.6,N
1622173875.8,286046995.0,N
1622173895.6,286046995.4,N
1622173915.4,286046996.2,N
1622173935.3,286046995.5,N
1622173955.1,286046994.5,Y
1622173975.9,286046998.0,P
1622173995.7,286046997.6,P
1622174015.5,286046997.5,P
1622174035.4,286046995.3,Y
1622174055.2,286046999.5,P
1622174075.0,286046997.0,N
1622174075.9,286046997.0,N
1622174095.8,286047000.7,N
1622174115.6,286047000.7,N
1622174135.5,286046998.6,N
1622174155.3,286047002.5,N
1622174175.1,286047002.2,N
1622174195.9,286047000.4,N
1622174215.7,286046999.7,N
1622174235.6,286047000.8,N
1622174255.4,286047000.2,N
1622174275.2,286047001.2,N
1622174295.1,286046998.5,N
1622174296.0,286046998.5,N
1622174315.8,286046999.4,N
1622174335.7,286046998.3,N
1622174355.5,286046998.4,N
1622174375.3,286047011.9,Y
1622174395.2,286047001.2,P
